Time,TemperatureF,DewpointF,PressureIn,WindDirection,WindDirectionDegrees,WindSpeedMPH,WindSpeedGustMPH,Humidity,HourlyPrecipIn,Conditions,Clouds,dailyrainin,SolarRadiationWatts/m^2,SoftwareType,DateUTC
2013-06-06 00:00:00,56.0,50.0,-100.00,ESE,112,2.0,-999.0,77,-99.99,,,-99.99,1.160000,,2013-06-06 04:00:00,
2013-06-06 00:33:00,56.0,50.0,-100.00,ESE,112,2.0,-999.0,77,-99.99,,,-99.99,1.160000,,2013-06-06 04:33:00,
2013-06-06 00:42:00,56.0,50.0,-100.00,ESE,112,2.0,-999.0,77,-99.99,,,-99.99,1.160000,,2013-06-06 04:42:00,
2013-06-06 00:53:00,56.0,50.0,-100.00,ESE,112,2.0,-999.0,77,-99.99,,,-99.99,1.160000,,2013-06-06 04:53:00,
2013-06-06 01:00:00,57.0,50.0,-100.00,ESE,112,3.0,-999.0,77,-99.99,,,-99.99,1.160000,,2013-06-06 05:00:00,
2013-06-06 01:32:00,57.0,50.0,-100.00,ESE,112,3.0,-999.0,77,-99.99,,,-99.99,1.160000,,2013-06-06 05:32:00,
2013-06-06 01:42:00,57.0,50.0,-100.00,ESE,112,3.0,-999.0,77,-99.99,,,-99.99,1.160000,,2013-06-06 05:42:00,
2013-06-06 01:52:00,57.0,50.0,-100.00,ESE,112,3.0,-999.0,77,-99.99,,,-99.99,1.160000,,2013-06-06 05:52:00,
2013-06-06 02:00:00,57.0,51.0,-100.00,ESE,112,4.0,-999.0,78,-99.99,,,-99.99,1.160000,,2013-06-06 06:00:00,
2013-06-06 02:33:00,57.0,51.0,-100.00,ESE,112,4.0,-999.0,78,-99.99,,,-99.99,1.160000,,2013-06-06 06:33:00,
2013-06-06 02:42:00,57.0,51.0,-100.00,ESE,112,4.0,-999.0,78,-99.99,,,-99.99,1.160000,,2013-06-06 06:42:00,
2013-06-06 02:52:00,57.0,51.0,-100.00,ESE,112,4.0,-999.0,78,-99.99,,,-99.99,1.160000,,2013-06-06 06:52:00,
2013-06-06 03:00:00,56.0,51.0,-100.00,ESE,112,4.0,-999.0,80,-99.99,,,-99.99,1.160000,,2013-06-06 07:00:00,
2013-06-06 03:32:00,56.0,51.0,-100.00,ESE,112,4.0,-999.0,80,-99.99,,,-99.99,1.160000,,2013-06-06 07:32:00,
2013-06-06 03:42:00,56.0,51.0,-100.00,ESE,112,4.0,-999.0,80,-99.99,,,-99.99,1.160000,,2013-06-06 07:42:00,
2013-06-06 03:52:00,56.0,51.0,-100.00,ESE,112,4.0,-999.0,80,-99.99,,,-99.99,1.160000,,2013-06-06 07:52:00,
2013-06-06 04:00:00,56.0,51.0,-100.00,ESE,112,3.0,-999.0,83,-99.99,,,-99.99,1.160000,,2013-06-06 08:00:00,
2013-06-06 04:32:00,56.0,51.0,-100.00,ESE,112,3.0,-999.0,83,-99.99,,,-99.99,1.160000,,2013-06-06 08:32:00,
2013-06-06 04:42:00,56.0,51.0,-100.00,ESE,112,3.0,-999.0,83,-99.99,,,-99.99,1.160000,,2013-06-06 08:42:00,
2013-06-06 04:52:00,56.0,51.0,-100.00,ESE,112,3.0,-999.0,83,-99.99,,,-99.99,1.160000,,2013-06-06 08:52:00,
2013-06-06 05:00:00,55.0,51.0,-100.00,ESE,112,2.0,-999.0,85,-99.99,,,-99.99,1.160000,,2013-06-06 09:00:00,
2013-06-06 05:33:00,55.0,51.0,-100.00,ESE,112,2.0,-999.0,85,-99.99,,,-99.99,1.160000,,2013-06-06 09:33:00,
2013-06-06 05:43:00,55.0,51.0,-100.00,ESE,112,2.0,-999.0,85,-99.99,,,-99.99,1.160000,,2013-06-06 09:43:00,
2013-06-06 05:53:00,55.0,51.0,-100.00,ESE,112,2.0,-999.0,85,-99.99,,,-99.99,1.160000,,2013-06-06 09:53:00,
2013-06-06 06:00:00,54.0,51.0,-100.00,ESE,112,2.0,-999.0,88,0.01,,,-99.99,1.160000,,2013-06-06 10:00:00,
2013-06-06 06:33:00,54.0,51.0,-100.00,ESE,112,2.0,-999.0,88,0.01,,,-99.99,1.160000,,2013-06-06 10:33:00,
2013-06-06 06:42:00,54.0,51.0,-100.00,ESE,112,2.0,-999.0,88,0.01,,,-99.99,1.160000,,2013-06-06 10:42:00,
2013-06-06 06:53:00,54.0,51.0,-100.00,ESE,112,2.0,-999.0,88,0.01,,,-99.99,1.160000,,2013-06-06 10:53:00,
2013-06-06 07:00:00,54.0,51.0,-100.00,ESE,112,2.0,-999.0,88,-99.99,,,-99.99,6.960000,,2013-06-06 11:00:00,
2013-06-06 07:32:00,54.0,51.0,-100.00,ESE,112,2.0,-999.0,88,-99.99,,,-99.99,6.960000,,2013-06-06 11:32:00,
2013-06-06 07:42:00,54.0,51.0,-100.00,ESE,112,2.0,-999.0,88,-99.99,,,-99.99,6.960000,,2013-06-06 11:42:00,
2013-06-06 07:52:00,54.0,51.0,-100.00,ESE,112,2.0,-999.0,88,-99.99,,,-99.99,6.960000,,2013-06-06 11:52:00,
2013-06-06 08:00:00,55.0,50.0,-100.00,ESE,112,2.0,-999.0,85,-99.99,,,-99.99,29.000000,,2013-06-06 12:00:00,
2013-06-06 08:33:00,55.0,50.0,-100.00,ESE,112,2.0,-999.0,85,-99.99,,,-99.99,29.000000,,2013-06-06 12:33:00,
2013-06-06 08:43:00,55.0,50.0,-100.00,ESE,112,2.0,-999.0,85,-99.99,,,-99.99,29.000000,,2013-06-06 12:43:00,
2013-06-06 08:53:00,55.0,50.0,-100.00,ESE,112,2.0,-999.0,85,-99.99,,,-99.99,29.000000,,2013-06-06 12:53:00,
2013-06-06 09:00:00,55.0,50.0,-100.00,ESE,112,2.0,-999.0,83,0.01,,,-99.99,42.919998,,2013-06-06 13:00:00,
2013-06-06 09:33:00,55.0,50.0,-100.00,ESE,112,2.0,-999.0,83,0.01,,,-99.99,42.919998,,2013-06-06 13:33:00,
2013-06-06 09:43:00,55.0,50.0,-100.00,ESE,112,2.0,-999.0,83,0.01,,,-99.99,42.919998,,2013-06-06 13:43:00,
2013-06-06 09:53:00,55.0,50.0,-100.00,ESE,112,2.0,-999.0,83,0.01,,,-99.99,42.919998,,2013-06-06 13:53:00,
2013-06-06 10:00:00,55.0,51.0,-100.00,ESE,112,3.0,-999.0,87,0.03,,,-99.99,84.680000,,2013-06-06 14:00:00,
2013-06-06 10:33:00,55.0,51.0,-100.00,ESE,112,3.0,-999.0,87,0.03,,,-99.99,84.680000,,2013-06-06 14:33:00,
2013-06-06 10:43:00,55.0,51.0,-100.00,ESE,112,3.0,-999.0,87,0.03,,,-99.99,84.680000,,2013-06-06 14:43:00,
2013-06-06 10:53:00,55.0,51.0,-100.00,ESE,112,3.0,-999.0,87,0.03,,,-99.99,84.680000,,2013-06-06 14:53:00,
2013-06-06 12:00:00,57.0,52.0,-100.00,ESE,112,3.0,-999.0,82,0.01,,,-99.99,344.519989,,2013-06-06 16:00:00,
2013-06-06 12:34:00,57.0,52.0,-100.00,ESE,112,3.0,-999.0,82,0.01,,,-99.99,344.519989,,2013-06-06 16:34:00,
2013-06-06 12:44:00,57.0,52.0,-100.00,ESE,112,3.0,-999.0,82,0.01,,,-99.99,344.519989,,2013-06-06 16:44:00,
2013-06-06 12:53:00,57.0,52.0,-100.00,ESE,112,3.0,-999.0,82,0.01,,,-99.99,344.519989,,2013-06-06 16:53:00,
2013-06-06 13:00:00,61.0,52.0,-100.00,ESE,112,5.0,-999.0,73,-99.99,,,-99.99,586.960022,,2013-06-06 17:00:00,
2013-06-06 13:33:00,61.0,52.0,-100.00,ESE,112,5.0,-999.0,73,-99.99,,,-99.99,586.960022,,2013-06-06 17:33:00,
2013-06-06 13:43:00,61.0,52.0,-100.00,ESE,112,5.0,-999.0,73,-99.99,,,-99.99,586.960022,,2013-06-06 17:43:00,
2013-06-06 13:53:00,61.0,52.0,-100.00,ESE,112,5.0,-999.0,73,-99.99,,,-99.99,586.960022,,2013-06-06 17:53:00,
2013-06-06 14:00:00,63.0,52.0,-100.00,SE,135,6.0,-999.0,66,-99.99,,,-99.99,570.719971,,2013-06-06 18:00:00,
2013-06-06 14:33:00,63.0,52.0,-100.00,SE,135,6.0,-999.0,66,-99.99,,,-99.99,570.719971,,2013-06-06 18:33:00,
2013-06-06 14:43:00,63.0,52.0,-100.00,SE,135,6.0,-999.0,66,-99.99,,,-99.99,570.719971,,2013-06-06 18:43:00,
2013-06-06 14:53:00,63.0,52.0,-100.00,SE,135,6.0,-999.0,66,-99.99,,,-99.99,570.719971,,2013-06-06 18:53:00,
2013-06-06 15:00:00,65.0,50.0,-100.00,SE,135,7.0,-999.0,58,-99.99,,,-99.99,475.600006,,2013-06-06 19:00:00,
2013-06-06 15:34:00,65.0,50.0,-100.00,SE,135,7.0,-999.0,58,-99.99,,,-99.99,475.600006,,2013-06-06 19:34:00,
2013-06-06 15:43:00,65.0,50.0,-100.00,SE,135,7.0,-999.0,58,-99.99,,,-99.99,475.600006,,2013-06-06 19:43:00,
2013-06-06 15:53:00,65.0,50.0,-100.00,SE,135,7.0,-999.0,58,-99.99,,,-99.99,475.600006,,2013-06-06 19:53:00,
2013-06-06 16:00:00,65.0,49.0,-100.00,SE,135,6.0,-999.0,56,-99.99,,,-99.99,273.760010,,2013-06-06 20:00:00,
2013-06-06 16:33:00,65.0,49.0,-100.00,SE,135,6.0,-999.0,56,-99.99,,,-99.99,273.760010,,2013-06-06 20:33:00,
2013-06-06 16:43:00,65.0,49.0,-100.00,SE,135,6.0,-999.0,56,-99.99,,,-99.99,273.760010,,2013-06-06 20:43:00,
2013-06-06 16:53:00,65.0,49.0,-100.00,SE,135,6.0,-999.0,56,-99.99,,,-99.99,273.760010,,2013-06-06 20:53:00,
2013-06-06 17:00:00,65.0,48.0,-100.00,SSE,157,4.0,-999.0,53,-99.99,,,-99.99,222.720001,,2013-06-06 21:00:00,
2013-06-06 17:33:00,65.0,48.0,-100.00,SSE,157,4.0,-999.0,53,-99.99,,,-99.99,222.720001,,2013-06-06 21:33:00,
2013-06-06 17:44:00,65.0,48.0,-100.00,SSE,157,4.0,-999.0,53,-99.99,,,-99.99,222.720001,,2013-06-06 21:44:00,
2013-06-06 17:53:00,65.0,48.0,-100.00,SSE,157,4.0,-999.0,53,-99.99,,,-99.99,222.720001,,2013-06-06 21:53:00,
2013-06-06 18:00:00,65.0,49.0,-100.00,SSE,157,4.0,-999.0,55,-99.99,,,-99.99,271.440002,,2013-06-06 22:00:00,
2013-06-06 18:33:00,65.0,49.0,-100.00,SSE,157,4.0,-999.0,55,-99.99,,,-99.99,271.440002,,2013-06-06 22:33:00,
2013-06-06 18:43:00,65.0,49.0,-100.00,SSE,157,4.0,-999.0,55,-99.99,,,-99.99,271.440002,,2013-06-06 22:43:00,
2013-06-06 18:53:00,65.0,49.0,-100.00,SSE,157,4.0,-999.0,55,-99.99,,,-99.99,271.440002,,2013-06-06 22:53:00,
2013-06-06 19:00:00,65.0,49.0,-100.00,South,180,3.0,-999.0,56,-99.99,,,-99.99,126.440002,,2013-06-06 23:00:00,
2013-06-06 19:33:00,65.0,49.0,-100.00,South,180,3.0,-999.0,56,-99.99,,,-99.99,126.440002,,2013-06-06 23:33:00,
2013-06-06 19:43:00,65.0,49.0,-100.00,South,180,3.0,-999.0,56,-99.99,,,-99.99,126.440002,,2013-06-06 23:43:00,
2013-06-06 19:52:00,65.0,49.0,-100.00,South,180,3.0,-999.0,56,-99.99,,,-99.99,126.440002,,2013-06-06 23:52:00,
2013-06-06 21:00:00,64.0,53.0,-100.00,South,180,1.0,-999.0,67,-99.99,,,-99.99,24.360001,,2013-06-07 01:00:00,
2013-06-06 21:33:00,64.0,53.0,-100.00,South,180,1.0,-999.0,67,-99.99,,,-99.99,24.360001,,2013-06-07 01:33:00,
2013-06-06 21:42:00,64.0,53.0,-100.00,South,180,1.0,-999.0,67,-99.99,,,-99.99,24.360001,,2013-06-07 01:42:00,
2013-06-06 21:52:00,64.0,53.0,-100.00,South,180,1.0,-999.0,67,-99.99,,,-99.99,24.360001,,2013-06-07 01:52:00,
2013-06-06 22:00:00,62.0,53.0,-100.00,South,180,1.0,-999.0,71,-99.99,,,-99.99,3.480000,,2013-06-07 02:00:00,
2013-06-06 22:32:00,62.0,53.0,-100.00,South,180,1.0,-999.0,71,-99.99,,,-99.99,3.480000,,2013-06-07 02:32:00,
2013-06-06 22:42:00,62.0,53.0,-100.00,South,180,1.0,-999.0,71,-99.99,,,-99.99,3.480000,,2013-06-07 02:42:00,
2013-06-06 22:52:00,62.0,53.0,-100.00,South,180,1.0,-999.0,71,-99.99,,,-99.99,3.480000,,2013-06-07 02:52:00,
2013-06-06 23:00:00,60.0,51.0,-100.00,South,180,1.0,-999.0,72,-99.99,,,-99.99,1.160000,,2013-06-07 03:00:00,
2013-06-06 23:33:00,60.0,51.0,-100.00,South,180,1.0,-999.0,72,-99.99,,,-99.99,1.160000,,2013-06-07 03:33:00,
2013-06-06 23:44:00,60.0,51.0,-100.00,South,180,1.0,-999.0,72,-99.99,,,-99.99,1.160000,,2013-06-07 03:44:00,
2013-06-06 23:53:00,60.0,51.0,-100.00,South,180,1.0,-999.0,72,-99.99,,,-99.99,1.160000,,2013-06-07 03:53:00,